Time,TemperatureF,DewpointF,PressureIn,WindDirection,WindDirectionDegrees,WindSpeedMPH,WindSpeedGustMPH,Humidity,HourlyPrecipIn,Conditions,Clouds,dailyrainin,SoftwareType,DateUTC
2013-02-03 00:07:00,9.9,7.0,30.05,SW,222,0.0,0.0,88,0.00,,,0.00,weatherlink.com 1.10,2013-02-03 06:07:00,
2013-02-03 00:22:00,10.1,7.0,30.05,WNW,293,1.0,2.0,88,0.00,,,0.00,weatherlink.com 1.10,2013-02-03 06:22:00,
2013-02-03 00:37:00,10.2,7.0,30.05,West,281,0.0,0.0,88,0.00,,,0.00,weatherlink.com 1.10,2013-02-03 06:37:00,
2013-02-03 00:52:00,10.4,8.0,30.05,WNW,295,1.0,3.0,88,0.00,,,0.00,weatherlink.com 1.10,2013-02-03 06:52:00,
2013-02-03 01:07:00,10.5,8.0,30.05,NW,326,1.0,4.0,88,0.00,,,0.00,weatherlink.com 1.10,2013-02-03 07:07:00,
2013-02-03 01:22:00,10.5,8.0,30.05,West,267,1.0,5.0,88,0.00,,,0.00,weatherlink.com 1.10,2013-02-03 07:22:00,
2013-02-03 01:37:00,10.1,7.0,30.05,WSW,248,2.0,5.0,87,0.00,,,0.00,weatherlink.com 1.10,2013-02-03 07:37:00,
2013-02-03 01:52:00,9.8,7.0,30.06,NW,315,3.0,7.0,86,0.00,,,0.00,weatherlink.com 1.10,2013-02-03 07:52:00,
2013-02-03 02:07:00,9.6,6.0,30.07,NNW,344,2.0,9.0,86,0.00,,,0.00,weatherlink.com 1.10,2013-02-03 08:07:00,
2013-02-03 02:22:00,9.5,6.0,30.08,NW,304,4.0,15.0,85,0.00,,,0.00,weatherlink.com 1.10,2013-02-03 08:22:00,
2013-02-03 02:37:00,9.4,6.0,30.08,West,259,6.0,10.0,85,0.00,,,0.00,weatherlink.com 1.10,2013-02-03 08:37:00,
2013-02-03 02:53:00,9.4,6.0,30.08,NW,318,3.0,10.0,84,0.00,,,0.00,weatherlink.com 1.10,2013-02-03 08:53:00,
2013-02-03 03:07:00,9.5,6.0,30.08,NW,321,0.0,5.0,84,0.00,,,0.00,weatherlink.com 1.10,2013-02-03 09:07:00,
2013-02-03 03:23:00,9.6,6.0,30.08,WNW,294,4.0,10.0,84,0.00,,,0.00,weatherlink.com 1.10,2013-02-03 09:23:00,
2013-02-03 03:38:00,9.8,6.0,30.07,West,280,2.0,9.0,83,0.00,,,0.00,weatherlink.com 1.10,2013-02-03 09:38:00,
2013-02-03 03:53:00,9.9,6.0,30.08,NW,304,1.0,7.0,83,0.00,,,0.00,weatherlink.com 1.10,2013-02-03 09:53:00,
2013-02-03 04:07:00,9.9,6.0,30.07,WNW,300,3.0,9.0,82,0.00,,,0.00,weatherlink.com 1.10,2013-02-03 10:07:00,
2013-02-03 04:22:00,9.6,5.0,30.09,WNW,290,2.0,8.0,81,0.00,,,0.00,weatherlink.com 1.10,2013-02-03 10:22:00,
2013-02-03 04:38:00,8.9,5.0,30.09,WNW,302,1.0,7.0,82,0.00,,,0.00,weatherlink.com 1.10,2013-02-03 10:38:00,
2013-02-03 04:53:00,8.6,5.0,30.10,West,271,1.0,6.0,83,0.00,,,0.00,weatherlink.com 1.10,2013-02-03 10:53:00,
2013-02-03 05:08:00,8.2,4.0,30.10,NW,307,0.0,5.0,83,0.00,,,0.00,weatherlink.com 1.10,2013-02-03 11:08:00,
2013-02-03 05:23:00,7.9,4.0,30.11,West,269,3.0,10.0,83,0.00,,,0.00,weatherlink.com 1.10,2013-02-03 11:23:00,
2013-02-03 05:38:00,7.5,3.0,30.11,WNW,290,2.0,8.0,83,0.00,,,0.00,weatherlink.com 1.10,2013-02-03 11:38:00,
2013-02-03 05:53:00,7.0,3.0,30.11,West,276,1.0,9.0,83,0.00,,,0.00,weatherlink.com 1.10,2013-02-03 11:53:00,
2013-02-03 06:08:00,6.3,2.0,30.11,West,273,1.0,6.0,83,0.00,,,0.00,weatherlink.com 1.10,2013-02-03 12:08:00,
2013-02-03 06:23:00,6.0,2.0,30.11,SW,233,1.0,9.0,83,0.00,,,0.00,weatherlink.com 1.10,2013-02-03 12:23:00,
2013-02-03 06:38:00,5.6,2.0,30.10,SW,236,6.0,8.0,83,0.00,,,0.00,weatherlink.com 1.10,2013-02-03 12:38:00,
2013-02-03 06:53:00,5.2,1.0,30.12,SW,235,3.0,7.0,83,0.00,,,0.00,weatherlink.com 1.10,2013-02-03 12:53:00,
2013-02-03 07:08:00,4.9,1.0,30.11,WNW,284,0.0,10.0,83,0.00,,,0.00,weatherlink.com 1.10,2013-02-03 13:08:00,
2013-02-03 07:23:00,4.5,0.0,30.12,WNW,295,2.0,8.0,83,0.00,,,0.00,weatherlink.com 1.10,2013-02-03 13:23:00,
2013-02-03 07:38:00,4.3,1.0,30.12,West,271,7.0,9.0,84,0.00,,,0.00,weatherlink.com 1.10,2013-02-03 13:38:00,
2013-02-03 07:53:00,4.1,0.0,30.12,NW,304,1.0,8.0,84,0.00,,,0.00,weatherlink.com 1.10,2013-02-03 13:53:00,
2013-02-03 08:08:00,4.5,1.0,30.13,WNW,297,0.0,7.0,84,0.00,,,0.00,weatherlink.com 1.10,2013-02-03 14:08:00,
2013-02-03 08:24:00,5.0,1.0,30.13,WNW,287,4.0,7.0,82,0.00,,,0.00,weatherlink.com 1.10,2013-02-03 14:24:00,
2013-02-03 08:38:00,5.1,1.0,30.15,WNW,288,3.0,9.0,82,0.00,,,0.00,weatherlink.com 1.10,2013-02-03 14:38:00,
2013-02-03 08:53:00,5.1,1.0,30.14,West,276,1.0,7.0,82,0.00,,,0.00,weatherlink.com 1.10,2013-02-03 14:53:00,
2013-02-03 09:08:00,6.1,2.0,30.14,NW,304,0.0,5.0,81,0.00,,,0.00,weatherlink.com 1.10,2013-02-03 15:08:00,
2013-02-03 09:24:00,7.0,2.0,30.14,West,274,4.0,7.0,79,0.00,,,0.00,weatherlink.com 1.10,2013-02-03 15:24:00,
2013-02-03 09:39:00,7.3,2.0,30.13,SSW,194,1.0,7.0,77,0.00,,,0.00,weatherlink.com 1.10,2013-02-03 15:39:00,
2013-02-03 09:54:00,8.3,2.0,30.13,WSW,252,0.0,6.0,76,0.00,,,0.00,weatherlink.com 1.10,2013-02-03 15:54:00,
2013-02-03 10:09:00,8.4,2.0,30.13,WNW,284,1.0,8.0,74,0.00,,,0.00,weatherlink.com 1.10,2013-02-03 16:09:00,
2013-02-03 10:24:00,9.5,3.0,30.13,WNW,302,3.0,6.0,73,0.00,,,0.00,weatherlink.com 1.10,2013-02-03 16:24:00,
2013-02-03 10:39:00,10.1,3.0,30.14,West,269,2.0,6.0,73,0.00,,,0.00,weatherlink.com 1.10,2013-02-03 16:39:00,
2013-02-03 10:54:00,10.3,3.0,30.14,West,281,1.0,6.0,71,0.00,,,0.00,weatherlink.com 1.10,2013-02-03 16:54:00,
2013-02-03 11:09:00,10.6,3.0,30.14,NW,309,4.0,6.0,71,0.00,,,0.00,weatherlink.com 1.10,2013-02-03 17:09:00,
2013-02-03 11:24:00,11.4,3.0,30.14,SW,226,3.0,8.0,70,0.00,,,0.00,weatherlink.com 1.10,2013-02-03 17:24:00,
2013-02-03 11:40:00,12.0,3.0,30.13,West,278,4.0,8.0,68,0.00,,,0.00,weatherlink.com 1.10,2013-02-03 17:40:00,
2013-02-03 11:54:00,13.2,5.0,30.12,SW,229,0.0,6.0,69,0.00,,,0.00,weatherlink.com 1.10,2013-02-03 17:54:00,
2013-02-03 12:09:00,13.3,5.0,30.12,NW,316,3.0,6.0,68,0.00,,,0.00,weatherlink.com 1.10,2013-02-03 18:09:00,
2013-02-03 12:25:00,13.1,4.0,30.11,West,266,1.0,6.0,68,0.00,,,0.00,weatherlink.com 1.10,2013-02-03 18:25:00,
2013-02-03 12:39:00,13.3,5.0,30.11,West,281,0.0,5.0,68,0.00,,,0.00,weatherlink.com 1.10,2013-02-03 18:39:00,
2013-02-03 12:55:00,13.6,5.0,30.10,WSW,243,1.0,6.0,67,0.00,,,0.00,weatherlink.com 1.10,2013-02-03 18:55:00,
2013-02-03 13:10:00,14.1,5.0,30.10,WNW,297,5.0,5.0,67,0.00,,,0.00,weatherlink.com 1.10,2013-02-03 19:10:00,
2013-02-03 13:25:00,13.7,5.0,30.10,West,277,2.0,7.0,67,0.00,,,0.00,weatherlink.com 1.10,2013-02-03 19:25:00,
2013-02-03 13:40:00,13.7,5.0,30.09,West,277,0.0,5.0,68,0.00,,,0.00,weatherlink.com 1.10,2013-02-03 19:40:00,
2013-02-03 13:55:00,14.4,6.0,30.09,WNW,291,2.0,6.0,68,0.00,,,0.00,weatherlink.com 1.10,2013-02-03 19:55:00,
2013-02-03 14:10:00,14.3,6.0,30.07,SW,230,0.0,8.0,68,0.00,,,0.00,weatherlink.com 1.10,2013-02-03 20:10:00,
2013-02-03 14:25:00,15.0,7.0,30.07,West,274,1.0,3.0,69,0.00,,,0.00,weatherlink.com 1.10,2013-02-03 20:25:00,
2013-02-03 14:40:00,15.5,7.0,30.07,WNW,287,2.0,5.0,68,0.00,,,0.00,weatherlink.com 1.10,2013-02-03 20:40:00,
2013-02-03 14:55:00,14.6,7.0,30.06,West,276,0.0,3.0,71,0.00,,,0.00,weatherlink.com 1.10,2013-02-03 20:55:00,
2013-02-03 15:10:00,14.6,6.0,30.06,West,277,0.0,5.0,70,0.00,,,0.00,weatherlink.com 1.10,2013-02-03 21:10:00,
2013-02-03 15:25:00,14.0,7.0,30.06,West,273,0.0,5.0,72,0.00,,,0.00,weatherlink.com 1.10,2013-02-03 21:25:00,
2013-02-03 15:40:00,14.0,7.0,30.06,NW,315,0.0,3.0,73,0.00,,,0.00,weatherlink.com 1.10,2013-02-03 21:40:00,
2013-02-03 15:55:00,13.6,7.0,30.06,NW,315,2.0,4.0,74,0.00,,,0.00,weatherlink.com 1.10,2013-02-03 21:55:00,
2013-02-03 16:11:00,13.6,7.0,30.05,WSW,255,0.0,2.0,74,0.00,,,0.00,weatherlink.com 1.10,2013-02-03 22:11:00,
2013-02-03 16:26:00,13.6,6.0,30.05,WNW,285,0.0,2.0,73,0.00,,,0.00,weatherlink.com 1.10,2013-02-03 22:26:00,
2013-02-03 16:41:00,13.4,6.0,30.05,WNW,298,0.0,2.0,73,0.00,,,0.00,weatherlink.com 1.10,2013-02-03 22:41:00,
2013-02-03 16:56:00,13.2,6.0,30.05,West,267,0.0,3.0,74,0.00,,,0.00,weatherlink.com 1.10,2013-02-03 22:56:00,
2013-02-03 17:11:00,13.1,7.0,30.04,SSW,198,0.0,1.0,75,0.00,,,0.00,weatherlink.com 1.10,2013-02-03 23:11:00,
2013-02-03 17:26:00,13.0,7.0,30.04,WNW,284,0.0,1.0,75,0.00,,,0.00,weatherlink.com 1.10,2013-02-03 23:26:00,
2013-02-03 17:41:00,13.0,7.0,30.05,West,273,0.0,1.0,76,0.00,,,0.00,weatherlink.com 1.10,2013-02-03 23:41:00,
2013-02-03 17:56:00,13.0,7.0,30.05,West,271,0.0,1.0,77,0.00,,,0.00,weatherlink.com 1.10,2013-02-03 23:56:00,
2013-02-03 18:11:00,13.0,7.0,30.06,WSW,255,0.0,2.0,77,0.00,,,0.00,weatherlink.com 1.10,2013-02-04 00:11:00,
2013-02-03 18:26:00,13.0,7.0,30.05,WNW,288,1.0,1.0,77,0.00,,,0.00,weatherlink.com 1.10,2013-02-04 00:26:00,
2013-02-03 18:42:00,12.9,7.0,30.06,WSW,243,0.0,1.0,78,0.00,,,0.00,weatherlink.com 1.10,2013-02-04 00:42:00,
2013-02-03 18:56:00,12.8,7.0,30.05,WSW,250,0.0,0.0,79,0.00,,,0.00,weatherlink.com 1.10,2013-02-04 00:56:00,
2013-02-03 19:11:00,12.7,8.0,30.05,WSW,250,0.0,0.0,80,0.00,,,0.00,weatherlink.com 1.10,2013-02-04 01:11:00,
2013-02-03 19:27:00,12.8,8.0,30.04,WSW,250,0.0,0.0,81,0.00,,,0.00,weatherlink.com 1.10,2013-02-04 01:27:00,
2013-02-03 19:42:00,12.8,8.0,30.04,WSW,252,0.0,0.0,81,0.00,,,0.00,weatherlink.com 1.10,2013-02-04 01:42:00,
2013-02-03 19:57:00,12.8,8.0,30.04,WSW,252,0.0,1.0,81,0.00,,,0.00,weatherlink.com 1.10,2013-02-04 01:57:00,
2013-02-03 20:12:00,12.7,8.0,30.04,NE,41,0.0,1.0,81,0.00,,,0.00,weatherlink.com 1.10,2013-02-04 02:12:00,
2013-02-03 20:27:00,12.7,8.0,30.04,ENE,65,0.0,2.0,81,0.00,,,0.00,weatherlink.com 1.10,2013-02-04 02:27:00,
2013-02-03 20:42:00,12.7,8.0,30.04,ENE,76,1.0,2.0,81,0.00,,,0.00,weatherlink.com 1.10,2013-02-04 02:42:00,
2013-02-03 20:57:00,12.7,8.0,30.05,ENE,70,0.0,2.0,81,0.00,,,0.00,weatherlink.com 1.10,2013-02-04 02:57:00,
2013-02-03 21:12:00,12.5,8.0,30.04,ENE,70,1.0,1.0,82,0.00,,,0.00,weatherlink.com 1.10,2013-02-04 03:12:00,
2013-02-03 21:27:00,12.4,8.0,30.04,ENE,70,0.0,2.0,83,0.00,,,0.00,weatherlink.com 1.10,2013-02-04 03:27:00,
2013-02-03 21:42:00,12.3,8.0,30.05,ENE,60,0.0,2.0,84,0.00,,,0.00,weatherlink.com 1.10,2013-02-04 03:42:00,
2013-02-03 21:57:00,12.3,8.0,30.04,ENE,68,0.0,1.0,84,0.00,,,0.00,weatherlink.com 1.10,2013-02-04 03:57:00,
2013-02-03 22:12:00,11.9,8.0,30.04,ENE,72,0.0,1.0,85,0.00,,,0.00,weatherlink.com 1.10,2013-02-04 04:12:00,
2013-02-03 22:28:00,11.6,8.0,30.04,NE,50,1.0,3.0,86,0.00,,,0.00,weatherlink.com 1.10,2013-02-04 04:28:00,
2013-02-03 22:42:00,11.3,8.0,30.04,ENE,71,0.0,2.0,87,0.00,,,0.00,weatherlink.com 1.10,2013-02-04 04:42:00,
2013-02-03 22:58:00,11.1,8.0,30.04,ENE,72,0.0,1.0,88,0.00,,,0.00,weatherlink.com 1.10,2013-02-04 04:58:00,
2013-02-03 23:13:00,11.0,8.0,30.04,ENE,67,0.0,1.0,88,0.00,,,0.00,weatherlink.com 1.10,2013-02-04 05:13:00,
2013-02-03 23:28:00,11.0,8.0,30.04,NE,50,0.0,1.0,89,0.00,,,0.00,weatherlink.com 1.10,2013-02-04 05:28:00,
2013-02-03 23:43:00,10.8,8.0,30.03,ENE,57,0.0,1.0,89,0.00,,,0.00,weatherlink.com 1.10,2013-02-04 05:43:00,
2013-02-03 23:58:00,10.7,8.0,30.03,ENE,70,0.0,1.0,89,0.00,,,0.00,weatherlink.com 1.10,2013-02-04 05:58:00,